,,PA_Meas_PMT16A,,PR_Meas_QMR101_102,,RH_Meas_QMH101,,SR_Meas_QMS101,,TA_Meas_QMH101,,GenWind,,GenWind,
time,status,PA,status,PR,status,RH,status,SR,status,TA,status,DirAvg,status,SpdAvg,
2013-10-30, 00:00:05,VALID,920.31,VALID,0,VALID,95.9483,VALID,0,VALID,19.6653,VALID,136,VALID,0,
2013-10-30, 00:01:05,VALID,920.309,VALID,0,VALID,95.9864,VALID,0,VALID,19.6248,VALID,136,VALID,0,
2013-10-30, 00:02:05,VALID,920.282,VALID,0,VALID,96.0474,VALID,0,VALID,19.6248,VALID,137,VALID,0,
2013-10-30, 00:03:05,VALID,920.261,VALID,0,VALID,96.0779,VALID,0,VALID,19.6458,VALID,135,VALID,0,
2013-10-30, 00:04:05,VALID,920.259,VALID,0,VALID,96.1313,VALID,0,VALID,19.6263,VALID,138,VALID,0,
2013-10-30, 00:05:05,VALID,920.274,VALID,0,VALID,96.1541,VALID,0,VALID,19.6068,VALID,139,VALID,0,
2013-10-30, 00:06:05,VALID,920.249,VALID,0,VALID,96.1846,VALID,0,VALID,19.6068,VALID,138,VALID,0,
2013-10-30, 00:07:05,VALID,920.239,VALID,0,VALID,96.1999,VALID,0,VALID,19.5678,VALID,139,VALID,0,
2013-10-30, 00:08:05,VALID,920.229,VALID,0,VALID,96.2304,VALID,0.107441,VALID,19.5468,VALID,139,VALID,0,
2013-10-30, 00:09:05,VALID,920.161,VALID,0,VALID,96.238,VALID,0,VALID,19.5468,VALID,142,VALID,0,
2013-10-30, 00:10:05,VALID,920.162,VALID,0,VALID,96.2761,VALID,0,VALID,19.5678,VALID,147,VALID,0,
2013-10-30, 00:11:05,VALID,920.149,VALID,0,VALID,96.2837,VALID,0,VALID,19.5678,VALID,150,VALID,0,
2013-10-30, 00:12:05,VALID,920.15,VALID,0,VALID,96.3066,VALID,0,VALID,19.5873,VALID,146,VALID,0,
2013-10-30, 00:13:05,VALID,920.132,VALID,0,VALID,96.3447,VALID,0,VALID,19.5663,VALID,168,VALID,0,
2013-10-30, 00:14:05,VALID,920.136,VALID,0,VALID,96.3752,VALID,0,VALID,19.5483,VALID,162,VALID,0,
2013-10-30, 00:15:05,VALID,920.153,VALID,0,VALID,96.36,VALID,0,VALID,19.5288,VALID,157,VALID,0,
2013-10-30, 00:16:05,VALID,920.145,VALID,0,VALID,96.3676,VALID,0,VALID,19.5093,VALID,165,VALID,0,
2013-10-30, 00:17:05,VALID,920.143,VALID,0,VALID,96.3829,VALID,0,VALID,19.5288,VALID,155,VALID,0,
2013-10-30, 00:18:05,VALID,920.134,VALID,0,VALID,96.3829,VALID,0,VALID,19.5288,VALID,168,VALID,0,
2013-10-30, 00:19:05,VALID,920.128,VALID,0,VALID,96.3752,VALID,0,VALID,19.5093,VALID,154,VALID,0,
2013-10-30, 00:20:05,VALID,920.113,VALID,0,VALID,96.3905,VALID,0,VALID,19.4688,VALID,157,VALID,0,
2013-10-30, 00:21:05,VALID,920.106,VALID,0,VALID,96.3752,VALID,0,VALID,19.4898,VALID,146,VALID,0,
2013-10-30, 00:22:05,VALID,920.092,VALID,0,VALID,96.3752,VALID,0,VALID,19.5093,VALID,146,VALID,0,
2013-10-30, 00:23:05,VALID,920.085,VALID,0,VALID,96.3676,VALID,0,VALID,19.5093,VALID,146,VALID,0,
2013-10-30, 00:24:05,VALID,920.086,VALID,0,VALID,96.3752,VALID,0,VALID,19.4898,VALID,145,VALID,0,
2013-10-30, 00:25:05,VALID,920.038,VALID,0,VALID,96.36,VALID,0,VALID,19.4688,VALID,144,VALID,0,
2013-10-30, 00:26:05,VALID,920.003,VALID,0,VALID,96.36,VALID,0,VALID,19.4703,VALID,138,VALID,0,
2013-10-30, 00:27:05,VALID,919.967,VALID,0,VALID,96.36,VALID,0,VALID,19.4508,VALID,133,VALID,0,
2013-10-30, 00:28:05,VALID,919.93,VALID,0,VALID,96.3752,VALID,0,VALID,19.4508,VALID,134,VALID,0,
2013-10-30, 00:29:05,VALID,919.919,VALID,0,VALID,96.3295,VALID,0,VALID,19.4703,VALID,150,VALID,0,
2013-10-30, 00:30:05,VALID,919.847,VALID,0,VALID,96.3295,VALID,0,VALID,19.4493,VALID,143,VALID,0,
2013-10-30, 00:31:05,VALID,919.802,VALID,0,VALID,96.3371,VALID,0,VALID,19.4718,VALID,141,VALID,0,
2013-10-30, 00:32:05,VALID,919.775,VALID,0,VALID,96.3142,VALID,0,VALID,19.4508,VALID,149,VALID,0,
2013-10-30, 00:33:05,VALID,919.745,VALID,0,VALID,96.3066,VALID,0,VALID,19.4508,VALID,149,VALID,0,
2013-10-30, 00:34:05,VALID,919.723,VALID,0,VALID,96.3295,VALID,0,VALID,19.4703,VALID,149,VALID,0,
2013-10-30, 00:35:05,VALID,919.693,VALID,0,VALID,96.3295,VALID,0,VALID,19.4898,VALID,149,VALID,0,
2013-10-30, 00:36:05,VALID,919.68,VALID,0,VALID,96.3219,VALID,0,VALID,19.4898,VALID,149,VALID,0,
2013-10-30, 00:37:05,VALID,919.709,VALID,0,VALID,96.3219,VALID,0,VALID,19.4898,VALID,149,VALID,0,
2013-10-30, 00:38:05,VALID,919.691,VALID,0,VALID,96.3371,VALID,0,VALID,19.4898,VALID,149,VALID,0,
2013-10-30, 00:39:05,VALID,919.698,VALID,0,VALID,96.3219,VALID,0,VALID,19.4898,VALID,149,VALID,0,
2013-10-30, 00:40:05,VALID,919.689,VALID,0,VALID,96.3295,VALID,0,VALID,19.4703,VALID,149,VALID,0,
2013-10-30, 00:41:05,VALID,919.697,VALID,0,VALID,96.299,VALID,0,VALID,19.4298,VALID,149,VALID,0,
2013-10-30, 00:42:05,VALID,919.672,VALID,0,VALID,96.3142,VALID,0,VALID,19.4508,VALID,149,VALID,0,
2013-10-30, 00:43:05,VALID,919.713,VALID,0,VALID,96.2914,VALID,0,VALID,19.4313,VALID,149,VALID,0,
2013-10-30, 00:44:05,VALID,919.681,VALID,0,VALID,96.2837,VALID,0,VALID,19.3908,VALID,149,VALID,0,
2013-10-30, 00:45:05,VALID,919.679,VALID,0,VALID,96.299,VALID,0,VALID,19.3923,VALID,149,VALID,0,
2013-10-30, 00:46:05,VALID,919.665,VALID,0,VALID,96.299,VALID,0,VALID,19.3908,VALID,149,VALID,0,
2013-10-30, 00:47:05,VALID,919.645,VALID,0,VALID,96.3219,VALID,0,VALID,19.4313,VALID,149,VALID,0,
2013-10-30, 00:48:05,VALID,919.615,VALID,0,VALID,96.3219,VALID,0,VALID,19.4313,VALID,149,VALID,0,
2013-10-30, 00:49:05,VALID,919.63,VALID,0,VALID,96.3295,VALID,0,VALID,19.4103,VALID,138,VALID,0,
2013-10-30, 00:50:05,VALID,919.605,VALID,0,VALID,96.3676,VALID,0,VALID,19.4313,VALID,138,VALID,0,
2013-10-30, 00:51:05,VALID,919.596,VALID,0,VALID,96.36,VALID,0.107441,VALID,19.4313,VALID,138,VALID,0,
2013-10-30, 00:52:05,VALID,919.599,VALID,0,VALID,96.36,VALID,0,VALID,19.4313,VALID,138,VALID,0,
2013-10-30, 00:53:05,VALID,919.54,VALID,0,VALID,96.3905,VALID,0,VALID,19.4313,VALID,138,VALID,0,
2013-10-30, 00:54:05,VALID,919.542,VALID,0,VALID,96.3829,VALID,0,VALID,19.4508,VALID,138,VALID,0,
2013-10-30, 00:55:05,VALID,919.518,VALID,0,VALID,96.3981,VALID,0,VALID,19.4508,VALID,138,VALID,0,
2013-10-30, 00:56:05,VALID,919.501,VALID,0,VALID,96.3829,VALID,0,VALID,19.4508,VALID,138,VALID,0,
2013-10-30, 00:57:05,VALID,919.468,VALID,0,VALID,96.3981,VALID,0,VALID,19.4508,VALID,138,VALID,0,
2013-10-30, 00:58:05,VALID,919.466,VALID,0,VALID,96.3829,VALID,0,VALID,19.4313,VALID,138,VALID,0,
2013-10-30, 00:59:05,VALID,919.462,VALID,0,VALID,96.3676,VALID,0,VALID,19.4508,VALID,138,VALID,0,
2013-10-30, 01:00:05,VALID,919.454,VALID,0,VALID,96.3752,VALID,0,VALID,19.4118,VALID,138,VALID,0,
2013-10-30, 01:01:05,VALID,919.408,VALID,0,VALID,96.3829,VALID,0,VALID,19.4327,VALID,138,VALID,0,
2013-10-30, 01:02:05,VALID,919.42,VALID,0,VALID,96.3981,VALID,0,VALID,19.4327,VALID,138,VALID,0,
2013-10-30, 01:03:05,VALID,919.412,VALID,0,VALID,96.3829,VALID,0,VALID,19.3923,VALID,138,VALID,0,
2013-10-30, 01:04:05,VALID,919.401,VALID,0,VALID,96.3829,VALID,0,VALID,19.3728,VALID,138,VALID,0,
2013-10-30, 01:05:05,VALID,919.4,VALID,0,VALID,96.3829,VALID,0,VALID,19.3533,VALID,138,VALID,0,
2013-10-30, 01:06:05,VALID,919.414,VALID,0,VALID,96.3752,VALID,0,VALID,19.3338,VALID,99,VALID,0,
2013-10-30, 01:07:05,VALID,919.407,VALID,0,VALID,96.3829,VALID,0,VALID,19.3338,VALID,99,VALID,0,
2013-10-30, 01:08:05,VALID,919.407,VALID,0,VALID,96.3981,VALID,0,VALID,19.2948,VALID,73,VALID,0,
2013-10-30, 01:09:05,VALID,919.407,VALID,0,VALID,96.3905,VALID,0,VALID,19.2948,VALID,73,VALID,0,
2013-10-30, 01:10:05,VALID,919.429,VALID,0,VALID,96.421,VALID,0,VALID,19.2948,VALID,73,VALID,0,
2013-10-30, 01:11:05,VALID,919.446,VALID,0,VALID,96.4286,VALID,0,VALID,19.2543,VALID,73,VALID,0,
2013-10-30, 01:12:05,VALID,919.447,VALID,0,VALID,96.421,VALID,0,VALID,19.2753,VALID,73,VALID,0,
2013-10-30, 01:13:05,VALID,919.43,VALID,0,VALID,96.4515,VALID,0,VALID,19.2753,VALID,73,VALID,0,
2013-10-30, 01:14:05,VALID,919.438,VALID,0,VALID,96.4667,VALID,0,VALID,19.2753,VALID,73,VALID,0,
2013-10-30, 01:15:05,VALID,919.415,VALID,0,VALID,96.4743,VALID,0,VALID,19.2962,VALID,73,VALID,0,
2013-10-30, 01:16:05,VALID,919.421,VALID,0,VALID,96.4819,VALID,0,VALID,19.2558,VALID,73,VALID,0,
2013-10-30, 01:17:05,VALID,919.418,VALID,0,VALID,96.4896,VALID,0,VALID,19.2558,VALID,74,VALID,0,
2013-10-30, 01:18:05,VALID,919.387,VALID,0,VALID,96.4972,VALID,0,VALID,19.2558,VALID,78,VALID,0,
2013-10-30, 01:19:05,VALID,919.346,VALID,0,VALID,96.5124,VALID,0,VALID,19.2363,VALID,78,VALID,0,
2013-10-30, 01:20:05,VALID,919.347,VALID,0,VALID,96.5124,VALID,0,VALID,19.2363,VALID,78,VALID,0,
2013-10-30, 01:21:05,VALID,919.32,VALID,0,VALID,96.5201,VALID,0,VALID,19.2363,VALID,78,VALID,0,
2013-10-30, 01:22:05,VALID,919.281,VALID,0,VALID,96.5353,VALID,0,VALID,19.2348,VALID,74,VALID,0,
2013-10-30, 01:23:05,VALID,919.297,VALID,0,VALID,96.5201,VALID,0,VALID,19.2348,VALID,74,VALID,0,
2013-10-30, 01:24:05,VALID,919.275,VALID,0,VALID,96.5506,VALID,0,VALID,19.2767,VALID,74,VALID,0,
2013-10-30, 01:25:04,VALID,919.244,VALID,0,VALID,96.5429,VALID,0,VALID,19.2153,VALID,74,VALID,0,
2013-10-30, 01:26:04,VALID,919.232,VALID,0,VALID,96.5582,VALID,0,VALID,19.2363,VALID,74,VALID,0,
2013-10-30, 01:27:04,VALID,919.208,VALID,0,VALID,96.5658,VALID,0,VALID,19.2572,VALID,74,VALID,0,
2013-10-30, 01:28:04,VALID,919.202,VALID,0,VALID,96.5582,VALID,0,VALID,19.2348,VALID,74,VALID,0,
2013-10-30, 01:29:04,VALID,919.189,VALID,0,VALID,96.5811,VALID,0,VALID,19.2363,VALID,74,VALID,0,
2013-10-30, 01:30:04,VALID,919.197,VALID,0,VALID,96.5811,VALID,0,VALID,19.2572,VALID,74,VALID,0,
2013-10-30, 01:31:04,VALID,919.164,VALID,0,VALID,96.5811,VALID,0,VALID,19.2558,VALID,74,VALID,0,
2013-10-30, 01:32:04,VALID,919.157,VALID,0,VALID,96.5963,VALID,0,VALID,19.2363,VALID,74,VALID,0,
2013-10-30, 01:33:04,VALID,919.158,VALID,0,VALID,96.5887,VALID,0,VALID,19.2168,VALID,74,VALID,0,
2013-10-30, 01:34:04,VALID,919.115,VALID,0,VALID,96.6192,VALID,0,VALID,19.2168,VALID,74,VALID,0,
2013-10-30, 01:35:04,VALID,919.1,VALID,0,VALID,96.6192,VALID,0,VALID,19.1944,VALID,74,VALID,0,
2013-10-30, 01:36:04,VALID,919.092,VALID,0,VALID,96.6192,VALID,0.107441,VALID,19.2153,VALID,74,VALID,0,
2013-10-30, 01:37:04,VALID,919.072,VALID,0,VALID,96.6115,VALID,0,VALID,19.1958,VALID,74,VALID,0,
2013-10-30, 01:38:04,VALID,919.059,VALID,0,VALID,96.6344,VALID,0,VALID,19.1958,VALID,74,VALID,0,
2013-10-30, 01:39:04,VALID,919.058,VALID,0,VALID,96.6497,VALID,0,VALID,19.1958,VALID,74,VALID,0,
2013-10-30, 01:40:04,VALID,919.024,VALID,0,VALID,96.642,VALID,0,VALID,19.1568,VALID,74,VALID,0,
2013-10-30, 01:41:04,VALID,919.022,VALID,0,VALID,96.6344,VALID,0.107441,VALID,19.1568,VALID,74,VALID,0,
2013-10-30, 01:42:04,VALID,919.015,VALID,0,VALID,96.6344,VALID,0,VALID,19.1568,VALID,74,VALID,0,
2013-10-30, 01:43:04,VALID,918.987,VALID,0,VALID,96.642,VALID,0.107441,VALID,19.1373,VALID,74,VALID,0,
2013-10-30, 01:44:04,VALID,918.967,VALID,0,VALID,96.6497,VALID,0,VALID,19.1373,VALID,74,VALID,0,
2013-10-30, 01:45:04,VALID,918.936,VALID,0,VALID,96.6344,VALID,0.107441,VALID,19.1373,VALID,82,VALID,0,
2013-10-30, 01:46:04,VALID,918.917,VALID,0,VALID,96.6192,VALID,0,VALID,19.1373,VALID,111,VALID,0,
2013-10-30, 01:47:04,VALID,918.872,VALID,0,VALID,96.5963,VALID,0.107441,VALID,19.1568,VALID,112,VALID,0,
2013-10-30, 01:48:04,VALID,918.853,VALID,0,VALID,96.6192,VALID,0.107441,VALID,19.1568,VALID,119,VALID,0,
2013-10-30, 01:49:04,VALID,918.845,VALID,0,VALID,96.6115,VALID,0,VALID,19.1763,VALID,119,VALID,0,
2013-10-30, 01:50:04,VALID,918.831,VALID,0,VALID,96.5963,VALID,0,VALID,19.1778,VALID,119,VALID,0,
2013-10-30, 01:51:04,VALID,918.834,VALID,0,VALID,96.5887,VALID,0,VALID,19.1778,VALID,119,VALID,0,
2013-10-30, 01:52:04,VALID,918.803,VALID,0,VALID,96.6115,VALID,0,VALID,19.1778,VALID,119,VALID,0,
2013-10-30, 01:53:04,VALID,918.812,VALID,0,VALID,96.5963,VALID,0,VALID,19.1973,VALID,119,VALID,0,
2013-10-30, 01:54:04,VALID,918.773,VALID,0.2,VALID,96.5887,VALID,0,VALID,19.1973,VALID,119,VALID,0,
2013-10-30, 01:55:04,VALID,918.758,VALID,0,VALID,96.5811,VALID,0,VALID,19.1792,VALID,119,VALID,0,
2013-10-30, 01:56:04,VALID,918.739,VALID,0.2,VALID,96.5734,VALID,0,VALID,19.1583,VALID,112,VALID,0,
2013-10-30, 01:57:04,VALID,918.685,VALID,0.2,VALID,96.5506,VALID,0,VALID,19.1178,VALID,101,VALID,0,
2013-10-30, 01:58:04,VALID,918.683,VALID,0.2,VALID,96.5048,VALID,0,VALID,19.1388,VALID,106,VALID,0,
2013-10-30, 01:59:04,VALID,918.69,VALID,0,VALID,96.4819,VALID,0,VALID,19.1193,VALID,110,VALID,0,
2013-10-30, 02:00:04,VALID,918.668,VALID,0,VALID,96.4515,VALID,0,VALID,19.1193,VALID,109,VALID,0,
2013-10-30, 02:01:04,VALID,918.658,VALID,0,VALID,96.4133,VALID,0,VALID,19.1193,VALID,118,VALID,0,
2013-10-30, 02:02:04,VALID,918.653,VALID,0,VALID,96.3752,VALID,0,VALID,19.0983,VALID,119,VALID,0,
2013-10-30, 02:03:04,VALID,918.66,VALID,0,VALID,96.3219,VALID,0,VALID,19.1388,VALID,118,VALID,0,
2013-10-30, 02:04:04,VALID,918.658,VALID,0,VALID,96.2761,VALID,0,VALID,19.1388,VALID,119,VALID,0,
2013-10-30, 02:05:04,VALID,918.656,VALID,0,VALID,96.238,VALID,0,VALID,19.1583,VALID,119,VALID,0,
2013-10-30, 02:06:04,VALID,918.643,VALID,0,VALID,96.2151,VALID,0,VALID,19.1778,VALID,119,VALID,0,
2013-10-30, 02:07:04,VALID,918.631,VALID,0,VALID,96.1846,VALID,0,VALID,19.1973,VALID,119,VALID,0,
2013-10-30, 02:08:04,VALID,918.618,VALID,0,VALID,96.177,VALID,0,VALID,19.1973,VALID,119,VALID,0,
2013-10-30, 02:09:04,VALID,918.622,VALID,0,VALID,96.1465,VALID,0,VALID,19.2153,VALID,119,VALID,0,
2013-10-30, 02:10:04,VALID,918.63,VALID,0,VALID,96.1694,VALID,0,VALID,19.2348,VALID,118,VALID,0,
2013-10-30, 02:11:04,VALID,918.629,VALID,0,VALID,96.1541,VALID,0,VALID,19.2558,VALID,118,VALID,0,
2013-10-30, 02:12:04,VALID,918.635,VALID,0,VALID,96.1618,VALID,0,VALID,19.2558,VALID,120,VALID,0,
2013-10-30, 02:13:04,VALID,918.601,VALID,0,VALID,96.1618,VALID,0,VALID,19.2348,VALID,166,VALID,0,
2013-10-30, 02:14:04,VALID,918.591,VALID,0,VALID,96.1846,VALID,0,VALID,19.2363,VALID,166,VALID,0,
2013-10-30, 02:15:04,VALID,918.63,VALID,0,VALID,96.1618,VALID,0,VALID,19.2363,VALID,166,VALID,0,
2013-10-30, 02:16:04,VALID,918.632,VALID,0,VALID,96.2075,VALID,0,VALID,19.2558,VALID,166,VALID,0,
2013-10-30, 02:17:04,VALID,918.648,VALID,0,VALID,96.2151,VALID,0,VALID,19.2753,VALID,166,VALID,0,
2013-10-30, 02:18:04,VALID,918.615,VALID,0,VALID,96.2456,VALID,0,VALID,19.2753,VALID,166,VALID,0,
2013-10-30, 02:19:04,VALID,918.603,VALID,0,VALID,96.2761,VALID,0,VALID,19.2753,VALID,166,VALID,0,
2013-10-30, 02:20:04,VALID,918.607,VALID,0,VALID,96.2761,VALID,0,VALID,19.2348,VALID,166,VALID,0,
2013-10-30, 02:21:04,VALID,918.578,VALID,0,VALID,96.2761,VALID,0,VALID,19.2153,VALID,166,VALID,0,
2013-10-30, 02:22:04,VALID,918.578,VALID,0,VALID,96.2914,VALID,0,VALID,19.2348,VALID,166,VALID,0,
2013-10-30, 02:23:04,VALID,918.577,VALID,0,VALID,96.2914,VALID,0,VALID,19.2558,VALID,166,VALID,0,
2013-10-30, 02:24:04,VALID,918.556,VALID,0,VALID,96.3066,VALID,0,VALID,19.2363,VALID,166,VALID,0,
2013-10-30, 02:25:04,VALID,918.542,VALID,0,VALID,96.36,VALID,0,VALID,19.2348,VALID,166,VALID,0,
2013-10-30, 02:26:04,VALID,918.54,VALID,0,VALID,96.3524,VALID,0,VALID,19.2558,VALID,166,VALID,0,
2013-10-30, 02:27:04,VALID,918.515,VALID,0,VALID,96.3524,VALID,0,VALID,19.2363,VALID,166,VALID,0,
2013-10-30, 02:28:04,VALID,918.514,VALID,0,VALID,96.3447,VALID,0,VALID,19.2168,VALID,166,VALID,0,
2013-10-30, 02:29:04,VALID,918.5,VALID,0,VALID,96.36,VALID,0,VALID,19.1973,VALID,166,VALID,0,
2013-10-30, 02:30:04,VALID,918.48,VALID,0,VALID,96.3752,VALID,0,VALID,19.1778,VALID,166,VALID,0,
2013-10-30, 02:31:04,VALID,918.431,VALID,0,VALID,96.36,VALID,0,VALID,19.1778,VALID,163,VALID,0,
2013-10-30, 02:32:04,VALID,918.443,VALID,0,VALID,96.3829,VALID,0,VALID,19.1583,VALID,163,VALID,0,
2013-10-30, 02:33:04,VALID,918.428,VALID,0,VALID,96.3829,VALID,0,VALID,19.1193,VALID,159,VALID,0,
2013-10-30, 02:34:04,VALID,918.406,VALID,0,VALID,96.3981,VALID,0,VALID,19.0983,VALID,159,VALID,0,
2013-10-30, 02:35:04,VALID,918.391,VALID,0,VALID,96.4133,VALID,0,VALID,19.0998,VALID,111,VALID,0,
2013-10-30, 02:36:04,VALID,918.37,VALID,0,VALID,96.4286,VALID,0,VALID,19.0803,VALID,72,VALID,0,
2013-10-30, 02:37:04,VALID,918.364,VALID,0,VALID,96.4362,VALID,0,VALID,19.0608,VALID,72,VALID,0,
2013-10-30, 02:38:04,VALID,918.352,VALID,0,VALID,96.4515,VALID,0,VALID,19.0413,VALID,59,VALID,0,
2013-10-30, 02:39:04,VALID,918.327,VALID,0,VALID,96.4667,VALID,0,VALID,19.0413,VALID,45,VALID,0,
2013-10-30, 02:40:04,VALID,918.329,VALID,0,VALID,96.4896,VALID,0,VALID,19.0413,VALID,44,VALID,0,
2013-10-30, 02:41:04,VALID,918.325,VALID,0,VALID,96.4896,VALID,0,VALID,19.0218,VALID,47,VALID,0,
2013-10-30, 02:42:04,VALID,918.337,VALID,0,VALID,96.5124,VALID,0,VALID,19.0218,VALID,35,VALID,0,
2013-10-30, 02:43:04,VALID,918.295,VALID,0,VALID,96.5124,VALID,0,VALID,19.0218,VALID,35,VALID,0,
2013-10-30, 02:44:04,VALID,918.286,VALID,0,VALID,96.5353,VALID,0,VALID,19.0413,VALID,35,VALID,0,
2013-10-30, 02:45:04,VALID,918.233,VALID,0,VALID,96.5658,VALID,0,VALID,19.0413,VALID,35,VALID,0,
2013-10-30, 02:46:04,VALID,918.266,VALID,0,VALID,96.5429,VALID,0,VALID,19.0218,VALID,36,VALID,0,
2013-10-30, 02:47:04,VALID,918.248,VALID,0,VALID,96.5658,VALID,0,VALID,18.9828,VALID,35,VALID,0,
2013-10-30, 02:48:04,VALID,918.25,VALID,0,VALID,96.5734,VALID,0,VALID,18.9828,VALID,35,VALID,0,
2013-10-30, 02:49:04,VALID,918.281,VALID,0,VALID,96.6115,VALID,0,VALID,19.0218,VALID,36,VALID,0,
2013-10-30, 02:50:04,VALID,918.292,VALID,0,VALID,96.6115,VALID,0,VALID,19.0218,VALID,36,VALID,0,
2013-10-30, 02:51:04,VALID,918.299,VALID,0,VALID,96.642,VALID,0,VALID,19.0413,VALID,36,VALID,0,
2013-10-30, 02:52:04,VALID,918.297,VALID,0,VALID,96.6573,VALID,0,VALID,19.0218,VALID,35,VALID,0,
2013-10-30, 02:53:04,VALID,918.334,VALID,0,VALID,96.6573,VALID,0,VALID,19.0413,VALID,36,VALID,0,
2013-10-30, 02:54:04,VALID,918.328,VALID,0,VALID,96.6878,VALID,0,VALID,19.0413,VALID,35,VALID,0,
2013-10-30, 02:55:04,VALID,918.314,VALID,0,VALID,96.6878,VALID,0,VALID,19.0413,VALID,35,VALID,0,
2013-10-30, 02:56:04,VALID,918.312,VALID,0,VALID,96.703,VALID,0,VALID,19.0608,VALID,35,VALID,0,
2013-10-30, 02:57:04,VALID,918.313,VALID,0,VALID,96.7183,VALID,0,VALID,19.0398,VALID,36,VALID,0,
2013-10-30, 02:58:04,VALID,918.319,VALID,0,VALID,96.6954,VALID,0,VALID,19.0608,VALID,138,VALID,0,
2013-10-30, 02:59:04,VALID,918.308,VALID,0,VALID,96.7259,VALID,0,VALID,19.0413,VALID,142,VALID,0,
2013-10-30, 03:00:04,VALID,918.319,VALID,0,VALID,96.7335,VALID,0.107441,VALID,19.0203,VALID,142,VALID,0,
2013-10-30, 03:01:04,VALID,918.32,VALID,0,VALID,96.7411,VALID,0,VALID,19.0203,VALID,177,VALID,0,
2013-10-30, 03:02:04,VALID,918.35,VALID,0,VALID,96.764,VALID,0,VALID,19.0218,VALID,203,VALID,0,
2013-10-30, 03:03:04,VALID,918.368,VALID,0,VALID,96.7411,VALID,0,VALID,19.0218,VALID,204,VALID,0,
2013-10-30, 03:04:04,VALID,918.378,VALID,0,VALID,96.7564,VALID,0,VALID,19.0008,VALID,204,VALID,0,
2013-10-30, 03:05:04,VALID,918.396,VALID,0,VALID,96.764,VALID,0,VALID,19.0413,VALID,204,VALID,0,
2013-10-30, 03:06:04,VALID,918.402,VALID,0,VALID,96.7716,VALID,0,VALID,19.0218,VALID,204,VALID,0,
2013-10-30, 03:07:04,VALID,918.393,VALID,0,VALID,96.764,VALID,0,VALID,19.0413,VALID,204,VALID,0,
2013-10-30, 03:08:04,VALID,918.393,VALID,0,VALID,96.7793,VALID,0,VALID,19.0608,VALID,204,VALID,0,
2013-10-30, 03:09:04,VALID,918.406,VALID,0,VALID,96.7869,VALID,0,VALID,19.0608,VALID,204,VALID,0,
2013-10-30, 03:10:04,VALID,918.418,VALID,0,VALID,96.8021,VALID,0,VALID,19.0608,VALID,204,VALID,0,
2013-10-30, 03:11:04,VALID,918.444,VALID,0,VALID,96.7945,VALID,0,VALID,19.0788,VALID,204,VALID,0,
2013-10-30, 03:12:04,VALID,918.428,VALID,0,VALID,96.7945,VALID,0,VALID,19.1193,VALID,204,VALID,0,
2013-10-30, 03:13:04,VALID,918.442,VALID,0,VALID,96.7945,VALID,0,VALID,19.0608,VALID,204,VALID,0,
2013-10-30, 03:14:04,VALID,918.434,VALID,0,VALID,96.8098,VALID,0,VALID,19.0413,VALID,204,VALID,0,
2013-10-30, 03:15:04,VALID,918.423,VALID,0,VALID,96.825,VALID,0,VALID,19.0413,VALID,204,VALID,0,
2013-10-30, 03:16:04,VALID,918.407,VALID,0,VALID,96.8174,VALID,0,VALID,19.0413,VALID,204,VALID,0,
2013-10-30, 03:17:04,VALID,918.4,VALID,0,VALID,96.8174,VALID,0,VALID,19.0413,VALID,204,VALID,0,
2013-10-30, 03:18:04,VALID,918.39,VALID,0,VALID,96.825,VALID,0,VALID,19.0608,VALID,204,VALID,0,
2013-10-30, 03:19:04,VALID,918.368,VALID,0,VALID,96.8098,VALID,0,VALID,19.0608,VALID,204,VALID,0,
2013-10-30, 03:20:04,VALID,918.339,VALID,0,VALID,96.8403,VALID,0,VALID,19.0998,VALID,204,VALID,0,
2013-10-30, 03:21:04,VALID,918.35,VALID,0,VALID,96.8326,VALID,0,VALID,19.1193,VALID,204,VALID,0,
2013-10-30, 03:22:04,VALID,918.336,VALID,0,VALID,96.8174,VALID,0,VALID,19.0998,VALID,204,VALID,0,
2013-10-30, 03:23:04,VALID,918.313,VALID,0,VALID,96.8403,VALID,0,VALID,19.0803,VALID,204,VALID,0,
2013-10-30, 03:24:04,VALID,918.337,VALID,0,VALID,96.8555,VALID,0,VALID,19.0803,VALID,204,VALID,0,
2013-10-30, 03:25:04,VALID,918.358,VALID,0,VALID,96.825,VALID,0,VALID,19.0803,VALID,204,VALID,0,
2013-10-30, 03:26:04,VALID,918.341,VALID,0,VALID,96.8326,VALID,0,VALID,19.0803,VALID,204,VALID,0,
2013-10-30, 03:27:04,VALID,918.34,VALID,0,VALID,96.8326,VALID,0,VALID,19.0608,VALID,204,VALID,0,
2013-10-30, 03:28:04,VALID,918.307,VALID,0,VALID,96.825,VALID,0,VALID,19.0413,VALID,204,VALID,0,
2013-10-30, 03:29:04,VALID,918.303,VALID,0,VALID,96.8479,VALID,0,VALID,19.0023,VALID,204,VALID,0,
2013-10-30, 03:30:04,VALID,918.27,VALID,0,VALID,96.8403,VALID,0,VALID,18.9814,VALID,202,VALID,0,
2013-10-30, 03:31:04,VALID,918.27,VALID,0,VALID,96.825,VALID,0,VALID,18.9828,VALID,161,VALID,0,
2013-10-30, 03:32:04,VALID,918.252,VALID,0,VALID,96.8174,VALID,0,VALID,18.9633,VALID,161,VALID,0,
2013-10-30, 03:33:04,VALID,918.229,VALID,0,VALID,96.825,VALID,0,VALID,18.9438,VALID,160,VALID,0,
2013-10-30, 03:34:04,VALID,918.245,VALID,0,VALID,96.825,VALID,0,VALID,18.9438,VALID,160,VALID,0,
2013-10-30, 03:35:04,VALID,918.254,VALID,0,VALID,96.8326,VALID,0,VALID,18.9438,VALID,160,VALID,0,
2013-10-30, 03:36:04,VALID,918.234,VALID,0,VALID,96.8403,VALID,0.107441,VALID,18.9229,VALID,160,VALID,0,
2013-10-30, 03:37:04,VALID,918.255,VALID,0,VALID,96.8555,VALID,0,VALID,18.9438,VALID,160,VALID,0,
2013-10-30, 03:38:04,VALID,918.287,VALID,0,VALID,96.8403,VALID,0,VALID,18.9438,VALID,160,VALID,0,
2013-10-30, 03:39:04,VALID,918.28,VALID,0,VALID,96.8479,VALID,0,VALID,18.9438,VALID,160,VALID,0,
2013-10-30, 03:40:04,VALID,918.28,VALID,0,VALID,96.8631,VALID,0,VALID,18.9438,VALID,160,VALID,0,
2013-10-30, 03:41:04,VALID,918.283,VALID,0,VALID,96.8555,VALID,0,VALID,18.9438,VALID,160,VALID,0,
2013-10-30, 03:42:04,VALID,918.293,VALID,0,VALID,96.8479,VALID,0,VALID,18.9438,VALID,129,VALID,0,
2013-10-30, 03:43:04,VALID,918.317,VALID,0,VALID,96.8403,VALID,0,VALID,18.9438,VALID,39,VALID,0,
2013-10-30, 03:44:04,VALID,918.305,VALID,0,VALID,96.8555,VALID,0,VALID,18.9633,VALID,39,VALID,0,
2013-10-30, 03:45:04,VALID,918.317,VALID,0,VALID,96.825,VALID,0,VALID,18.9438,VALID,39,VALID,0,
2013-10-30, 03:46:04,VALID,918.316,VALID,0,VALID,96.8403,VALID,0,VALID,18.9633,VALID,39,VALID,0,
2013-10-30, 03:47:04,VALID,918.333,VALID,0,VALID,96.8174,VALID,0,VALID,18.9828,VALID,39,VALID,0,
2013-10-30, 03:48:04,VALID,918.334,VALID,0,VALID,96.8174,VALID,0,VALID,19.0023,VALID,39,VALID,0,
2013-10-30, 03:49:04,VALID,918.336,VALID,0,VALID,96.8021,VALID,0,VALID,19.0218,VALID,39,VALID,0,
2013-10-30, 03:50:04,VALID,918.35,VALID,0,VALID,96.8021,VALID,0,VALID,19.0023,VALID,39,VALID,0,
2013-10-30, 03:51:04,VALID,918.35,VALID,0,VALID,96.7945,VALID,0,VALID,19.0023,VALID,39,VALID,0,
2013-10-30, 03:52:04,VALID,918.349,VALID,0,VALID,96.8021,VALID,0,VALID,19.0023,VALID,39,VALID,0,
2013-10-30, 03:53:04,VALID,918.352,VALID,0,VALID,96.8021,VALID,0,VALID,19.0218,VALID,39,VALID,0,
2013-10-30, 03:54:04,VALID,918.373,VALID,0,VALID,96.8098,VALID,0,VALID,19.0218,VALID,39,VALID,0,
2013-10-30, 03:55:04,VALID,918.374,VALID,0,VALID,96.7945,VALID,0,VALID,19.0023,VALID,39,VALID,0,
2013-10-30, 03:56:04,VALID,918.401,VALID,0,VALID,96.7869,VALID,0,VALID,19.0023,VALID,39,VALID,0,
2013-10-30, 03:57:04,VALID,918.393,VALID,0,VALID,96.7793,VALID,0.107441,VALID,18.9828,VALID,39,VALID,0,
2013-10-30, 03:58:04,VALID,918.408,VALID,0,VALID,96.7945,VALID,0,VALID,18.9828,VALID,39,VALID,0,
2013-10-30, 03:59:04,VALID,918.444,VALID,0,VALID,96.7716,VALID,0,VALID,19.0023,VALID,39,VALID,0,
2013-10-30, 04:00:04,VALID,918.464,VALID,0,VALID,96.7793,VALID,0,VALID,19.0023,VALID,58,VALID,0,